Location: Newark
(22.3060°N, 114.2134°E)
Time: 03:41:04
(UTC+00:00)

Vanguard 1 Rocket - Pass Details

Date: 07 August 2021
Orbit: 650 x 4226 km, 34.3° (Epoch: 24 September)

Event Time Altitude Azimuth Distance (km) Brightness Sun altitude
Exits shadow 20:08:36 - 196° (SSW) 6,715 11.4 -23.9°
Reaches altitude 10° 20:10:48 10° 192° (SSW) 6,487 11.3 -23.4°
Maximum altitude 20:30:21 34° 135° (SE) 5,612 11.5 -19.5°
Drops below altitude 10° 20:51:06 10° 81° (E) 7,018 13.1 -15.2°
Sets 20:56:50 0° 73° (ENE) 7,704 14.0 -14.0°
